User: anonymous   Login
Location: Ellerstadt
(49.4644°N, 8.2615°E)
Time: 02:02:29
(UTC+00:00)
Language:

Okean 3 - Orbit

View from above orbital plane
View from above orbital plane
View from above satellite
View from above satellite

Ground track
Ground track

The orbit data is extracted from the following two-line orbital elements,

1 21397U 91039A   21125.34983051  .00000273  00000-0  23632-4 0  9990
2 21397  82.5238 230.6760 0018183 167.4925 192.6750 14.93086958600291
Epoch (UTC): 05 May 2021 08:23:45
Eccentricity: 0.0018183
inclination: 82.5238°
perigee height: 575 km
apogee height: 601 km
right ascension of ascending node: 230.6760°
argument of perigee: 167.4925°
revolutions per day: 14.93086958
mean anomaly at epoch: 192.6750°
orbit number at epoch: 60029

The dashed part of the orbit path shows where the satellite is in the earth's shadow,  

DLR